Tracking 28794 objects as of 19-Apr-2024
HD Live streaming from Space Station
objects crossing your sky now

APRIZESAT 8

Track APRIZESAT 8 now!
10-day predictions
APRIZESAT 8 is classified as:


NORAD ID: 39425
Int'l Code: 2013-066K
Perigee: 589.8 km
Apogee: 658.9 km
Inclination: 97.7 °
Period: 97.0 minutes
Semi major axis: 6995 km
RCS: Unknown
Launch date: November 21, 2013
Source: United States (US)
Launch site: Orenburg, Russia (OREN)

Uplink (MHz):
Downlink (MHz): 400.553
Beacon (MHz):
Mode: 9600bps GMSK
Call sign:
Status: Unknown

Your satellite tracking list
Your tracking list is empty




NASA's NSSDC Master Catalog

Two Line Element Set (TLE):
1 39425U 13066K   24110.40976093  .00004356  00000-0  52029-3 0  9994
2 39425  97.7237  64.7596 0049342   0.6295 359.4973 14.83846487562524
Source of the keplerian elements: AFSPC